Time,TemperatureF,DewpointF,PressureIn,WindDirection,WindDirectionDegrees,WindSpeedMPH,WindSpeedGustMPH,Humidity,HourlyPrecipIn,Conditions,Clouds,dailyrainin,SoftwareType,DateUTC
2013-09-22 00:06:00,49.2,35.0,29.78,WSW,254,5.0,5.0,58,0.00,,,0.00,weatherlink.com 1.10,2013-09-22 06:06:00,
2013-09-22 00:21:00,48.8,34.0,29.78,WSW,237,3.0,6.0,57,0.00,,,0.00,weatherlink.com 1.10,2013-09-22 06:21:00,
2013-09-22 00:36:00,48.2,35.0,29.77,SW,236,5.0,6.0,60,0.00,,,0.00,weatherlink.com 1.10,2013-09-22 06:36:00,
2013-09-22 00:51:00,47.5,34.0,29.77,SW,236,4.0,6.0,61,0.00,,,0.00,weatherlink.com 1.10,2013-09-22 06:51:00,
2013-09-22 01:06:00,47.2,34.0,29.77,WSW,237,4.0,6.0,61,0.00,,,0.00,weatherlink.com 1.10,2013-09-22 07:06:00,
2013-09-22 01:21:00,47.1,34.0,29.77,WSW,237,4.0,6.0,61,0.00,,,0.00,weatherlink.com 1.10,2013-09-22 07:21:00,
2013-09-22 01:36:00,46.9,34.0,29.77,WSW,237,3.0,4.0,62,0.00,,,0.00,weatherlink.com 1.10,2013-09-22 07:36:00,
2013-09-22 01:51:00,47.3,33.0,29.77,WSW,241,2.0,5.0,59,0.00,,,0.00,weatherlink.com 1.10,2013-09-22 07:51:00,
2013-09-22 02:06:00,48.1,34.0,29.77,WSW,241,1.0,5.0,59,0.00,,,0.00,weatherlink.com 1.10,2013-09-22 08:06:00,
2013-09-22 02:21:00,48.7,34.0,29.77,WSW,242,4.0,6.0,58,0.00,,,0.00,weatherlink.com 1.10,2013-09-22 08:21:00,
2013-09-22 02:36:00,48.9,35.0,29.76,WSW,242,3.0,6.0,59,0.00,,,0.00,weatherlink.com 1.10,2013-09-22 08:36:00,
2013-09-22 02:51:00,48.9,35.0,29.76,WSW,242,3.0,5.0,60,0.00,,,0.00,weatherlink.com 1.10,2013-09-22 08:51:00,
2013-09-22 03:06:00,49.1,36.0,29.75,WSW,237,3.0,5.0,60,0.00,,,0.00,weatherlink.com 1.10,2013-09-22 09:06:00,
2013-09-22 03:21:00,49.2,36.0,29.76,West,274,6.0,12.0,61,0.00,,,0.00,weatherlink.com 1.10,2013-09-22 09:21:00,
2013-09-22 03:36:00,49.5,35.0,29.75,WSW,250,6.0,10.0,57,0.00,,,0.00,weatherlink.com 1.10,2013-09-22 09:36:00,
2013-09-22 03:51:00,50.0,35.0,29.75,WNW,283,4.0,10.0,57,0.00,,,0.00,weatherlink.com 1.10,2013-09-22 09:51:00,
2013-09-22 04:06:00,50.0,35.0,29.75,West,270,4.0,10.0,56,0.00,,,0.00,weatherlink.com 1.10,2013-09-22 10:06:00,
2013-09-22 04:21:00,49.8,35.0,29.75,SW,234,6.0,8.0,57,0.00,,,0.00,weatherlink.com 1.10,2013-09-22 10:21:00,
2013-09-22 04:36:00,49.8,34.0,29.75,WSW,255,8.0,11.0,55,0.00,,,0.00,weatherlink.com 1.10,2013-09-22 10:36:00,
2013-09-22 04:51:00,50.5,34.0,29.74,WNW,288,8.0,12.0,53,0.00,,,0.00,weatherlink.com 1.10,2013-09-22 10:51:00,
2013-09-22 05:06:00,51.3,35.0,29.74,West,263,5.0,17.0,54,0.00,,,0.00,weatherlink.com 1.10,2013-09-22 11:06:00,
2013-09-22 05:21:00,51.7,36.0,29.74,West,263,1.0,9.0,55,0.00,,,0.00,weatherlink.com 1.10,2013-09-22 11:21:00,
2013-09-22 05:36:00,51.6,36.0,29.74,West,266,4.0,9.0,55,0.00,,,0.00,weatherlink.com 1.10,2013-09-22 11:36:00,
2013-09-22 05:51:00,51.6,37.0,29.73,SW,227,3.0,8.0,59,0.00,,,0.00,weatherlink.com 1.10,2013-09-22 11:51:00,
2013-09-22 06:06:00,51.9,37.0,29.74,SSE,148,3.0,5.0,58,0.00,,,0.00,weatherlink.com 1.10,2013-09-22 12:06:00,
2013-09-22 06:21:00,52.1,38.0,29.74,NW,306,5.0,7.0,59,0.00,,,0.00,weatherlink.com 1.10,2013-09-22 12:21:00,
2013-09-22 06:36:00,52.0,38.0,29.74,WSW,238,2.0,7.0,59,0.00,,,0.00,weatherlink.com 1.10,2013-09-22 12:36:00,
2013-09-22 06:51:00,51.0,38.0,29.74,WSW,238,1.0,4.0,62,0.00,,,0.00,weatherlink.com 1.10,2013-09-22 12:51:00,
2013-09-22 07:06:00,50.5,36.0,29.74,SW,234,3.0,5.0,58,0.00,,,0.00,weatherlink.com 1.10,2013-09-22 13:06:00,
2013-09-22 07:21:00,51.9,36.0,29.73,SW,233,0.0,4.0,55,0.00,,,0.00,weatherlink.com 1.10,2013-09-22 13:21:00,
2013-09-22 07:36:00,53.9,36.0,29.73,SW,226,2.0,5.0,51,0.00,,,0.00,weatherlink.com 1.10,2013-09-22 13:36:00,
2013-09-22 07:51:00,56.4,38.0,29.73,SSW,192,6.0,7.0,50,0.00,,,0.00,weatherlink.com 1.10,2013-09-22 13:51:00,
2013-09-22 08:06:00,58.4,37.0,29.72,SSE,158,4.0,8.0,45,0.00,,,0.00,weatherlink.com 1.10,2013-09-22 14:06:00,
2013-09-22 08:21:00,59.5,38.0,29.72,SE,128,1.0,10.0,45,0.00,,,0.00,weatherlink.com 1.10,2013-09-22 14:21:00,
2013-09-22 08:36:00,60.1,38.0,29.72,SSE,149,0.0,8.0,44,0.00,,,0.00,weatherlink.com 1.10,2013-09-22 14:36:00,
2013-09-22 08:51:00,61.1,38.0,29.72,SW,225,1.0,7.0,43,0.00,,,0.00,weatherlink.com 1.10,2013-09-22 14:51:00,
2013-09-22 09:07:00,62.0,37.0,29.71,SE,132,0.0,6.0,40,0.00,,,0.00,weatherlink.com 1.10,2013-09-22 15:07:00,
2013-09-22 09:22:00,62.6,40.0,29.71,West,280,1.0,4.0,43,0.00,,,0.00,weatherlink.com 1.10,2013-09-22 15:22:00,
2013-09-22 09:37:00,64.2,40.0,29.70,East,80,1.0,4.0,42,0.00,,,0.00,weatherlink.com 1.10,2013-09-22 15:37:00,
2013-09-22 09:52:00,65.5,42.0,29.70,NNW,340,4.0,5.0,42,0.00,,,0.00,weatherlink.com 1.10,2013-09-22 15:52:00,
2013-09-22 10:07:00,66.2,42.0,29.70,WNW,284,2.0,10.0,42,0.00,,,0.00,weatherlink.com 1.10,2013-09-22 16:07:00,
2013-09-22 10:22:00,65.8,43.0,29.70,WSW,240,3.0,11.0,43,0.00,,,0.00,weatherlink.com 1.10,2013-09-22 16:22:00,
2013-09-22 10:37:00,63.5,42.0,29.68,WSW,252,5.0,9.0,45,0.00,,,0.00,weatherlink.com 1.10,2013-09-22 16:37:00,
2013-09-22 10:52:00,62.3,42.0,29.68,WNW,302,1.0,9.0,47,0.00,,,0.00,weatherlink.com 1.10,2013-09-22 16:52:00,
2013-09-22 11:07:00,62.2,41.0,29.66,West,261,2.0,12.0,46,0.00,,,0.00,weatherlink.com 1.10,2013-09-22 17:07:00,
2013-09-22 11:22:00,62.3,42.0,29.66,WSW,254,6.0,13.0,47,0.00,,,0.00,weatherlink.com 1.10,2013-09-22 17:22:00,
2013-09-22 11:37:00,60.1,43.0,29.66,NW,311,4.0,14.0,53,0.00,,,0.00,weatherlink.com 1.10,2013-09-22 17:37:00,
2013-09-22 11:52:00,56.5,45.0,29.66,SW,218,10.0,18.0,66,0.02,,,0.02,weatherlink.com 1.10,2013-09-22 17:52:00,
2013-09-22 12:07:00,53.4,45.0,29.66,WSW,249,8.0,16.0,73,0.03,,,0.03,weatherlink.com 1.10,2013-09-22 18:07:00,
2013-09-22 12:22:00,52.2,46.0,29.66,WSW,257,7.0,19.0,80,0.04,,,0.04,weatherlink.com 1.10,2013-09-22 18:22:00,
2013-09-22 12:37:00,54.5,47.0,29.65,WSW,246,3.0,19.0,76,0.04,,,0.04,weatherlink.com 1.10,2013-09-22 18:37:00,
2013-09-22 12:52:00,57.4,46.0,29.65,West,260,10.0,11.0,66,0.01,,,0.04,weatherlink.com 1.10,2013-09-22 18:52:00,
2013-09-22 13:07:00,59.1,46.0,29.64,NW,312,1.0,9.0,62,0.00,,,0.04,weatherlink.com 1.10,2013-09-22 19:07:00,
2013-09-22 13:22:00,59.6,46.0,29.63,NW,306,1.0,11.0,61,0.00,,,0.04,weatherlink.com 1.10,2013-09-22 19:22:00,
2013-09-22 13:37:00,59.6,45.0,29.63,West,262,2.0,6.0,59,0.00,,,0.04,weatherlink.com 1.10,2013-09-22 19:37:00,
2013-09-22 13:52:00,59.6,45.0,29.61,WNW,298,2.0,5.0,60,0.00,,,0.04,weatherlink.com 1.10,2013-09-22 19:52:00,
2013-09-22 14:07:00,59.6,45.0,29.61,WNW,298,0.0,3.0,60,0.00,,,0.04,weatherlink.com 1.10,2013-09-22 20:07:00,
2013-09-22 14:22:00,60.1,46.0,29.60,WNW,298,2.0,3.0,60,0.00,,,0.04,weatherlink.com 1.10,2013-09-22 20:22:00,
2013-09-22 14:37:00,60.3,46.0,29.60,NE,35,0.0,5.0,59,0.00,,,0.04,weatherlink.com 1.10,2013-09-22 20:37:00,
2013-09-22 14:52:00,60.2,45.0,29.58,North,5,1.0,3.0,58,0.00,,,0.04,weatherlink.com 1.10,2013-09-22 20:52:00,
2013-09-22 15:07:00,60.2,49.0,29.58,NE,42,0.0,3.0,67,0.01,,,0.05,weatherlink.com 1.10,2013-09-22 21:07:00,
2013-09-22 15:22:00,60.4,47.0,29.58,East,80,2.0,3.0,61,0.01,,,0.05,weatherlink.com 1.10,2013-09-22 21:22:00,
2013-09-22 15:37:00,59.9,46.0,29.56,NE,44,3.0,5.0,61,0.01,,,0.05,weatherlink.com 1.10,2013-09-22 21:37:00,
2013-09-22 15:52:00,59.5,47.0,29.56,NE,44,0.0,0.0,63,0.01,,,0.05,weatherlink.com 1.10,2013-09-22 21:52:00,
2013-09-22 16:07:00,59.0,47.0,29.56,SE,133,2.0,4.0,65,0.00,,,0.05,weatherlink.com 1.10,2013-09-22 22:07:00,
2013-09-22 16:22:00,57.6,43.0,29.57,SSE,149,4.0,10.0,59,0.00,,,0.05,weatherlink.com 1.10,2013-09-22 22:22:00,
2013-09-22 16:37:00,55.0,43.0,29.58,West,259,10.0,15.0,65,0.00,,,0.05,weatherlink.com 1.10,2013-09-22 22:37:00,
2013-09-22 16:52:00,51.0,42.0,29.57,West,265,9.0,20.0,71,0.00,,,0.05,weatherlink.com 1.10,2013-09-22 22:52:00,
2013-09-22 17:07:00,49.3,41.0,29.57,West,262,12.0,15.0,74,0.00,,,0.05,weatherlink.com 1.10,2013-09-22 23:07:00,
2013-09-22 17:23:00,48.9,42.0,29.57,West,276,9.0,14.0,77,0.00,,,0.05,weatherlink.com 1.10,2013-09-22 23:23:00,
2013-09-22 17:38:00,49.0,41.0,29.58,SW,236,10.0,14.0,75,0.00,,,0.05,weatherlink.com 1.10,2013-09-22 23:38:00,
2013-09-22 17:53:00,48.8,43.0,29.59,SW,236,5.0,17.0,79,0.01,,,0.06,weatherlink.com 1.10,2013-09-22 23:53:00,
2013-09-22 18:08:00,47.7,43.0,29.59,WNW,297,13.0,17.0,82,0.03,,,0.08,weatherlink.com 1.10,2013-09-23 00:08:00,
2013-09-22 18:23:00,46.9,43.0,29.57,West,269,8.0,18.0,85,0.03,,,0.08,weatherlink.com 1.10,2013-09-23 00:23:00,
2013-09-22 18:38:00,46.0,41.0,29.57,SSW,205,4.0,18.0,84,0.03,,,0.08,weatherlink.com 1.10,2013-09-23 00:38:00,
2013-09-22 18:53:00,45.9,42.0,29.56,SW,227,2.0,4.0,85,0.02,,,0.08,weatherlink.com 1.10,2013-09-23 00:53:00,
2013-09-22 19:08:00,46.3,41.0,29.55,SSE,148,0.0,7.0,81,0.00,,,0.08,weatherlink.com 1.10,2013-09-23 01:08:00,
2013-09-22 19:23:00,46.8,42.0,29.54,WSW,240,0.0,2.0,83,0.00,,,0.08,weatherlink.com 1.10,2013-09-23 01:23:00,
2013-09-22 19:38:00,46.9,42.0,29.54,WNW,292,0.0,4.0,84,0.00,,,0.08,weatherlink.com 1.10,2013-09-23 01:38:00,
2013-09-22 19:53:00,46.7,43.0,29.55,WNW,290,4.0,5.0,86,0.00,,,0.08,weatherlink.com 1.10,2013-09-23 01:53:00,
2013-09-22 20:08:00,46.5,43.0,29.54,WNW,290,3.0,3.0,87,0.00,,,0.08,weatherlink.com 1.10,2013-09-23 02:08:00,
2013-09-22 20:23:00,46.1,43.0,29.54,West,279,2.0,6.0,88,0.00,,,0.08,weatherlink.com 1.10,2013-09-23 02:23:00,
2013-09-22 20:38:00,46.0,42.0,29.54,West,279,0.0,3.0,87,0.00,,,0.08,weatherlink.com 1.10,2013-09-23 02:38:00,
2013-09-22 20:53:00,46.1,43.0,29.54,WNW,286,4.0,8.0,87,0.00,,,0.08,weatherlink.com 1.10,2013-09-23 02:53:00,
2013-09-22 21:08:00,46.2,42.0,29.54,WNW,302,0.0,6.0,85,0.00,,,0.08,weatherlink.com 1.10,2013-09-23 03:08:00,
2013-09-22 21:23:00,46.4,43.0,29.54,WNW,302,0.0,3.0,86,0.00,,,0.08,weatherlink.com 1.10,2013-09-23 03:23:00,
2013-09-22 21:38:00,46.4,43.0,29.55,WNW,302,2.0,4.0,86,0.00,,,0.08,weatherlink.com 1.10,2013-09-23 03:38:00,
2013-09-22 21:53:00,46.3,41.0,29.55,South,173,5.0,12.0,82,0.00,,,0.08,weatherlink.com 1.10,2013-09-23 03:53:00,
2013-09-22 22:08:00,46.5,41.0,29.55,WNW,286,12.0,17.0,81,0.00,,,0.08,weatherlink.com 1.10,2013-09-23 04:08:00,
2013-09-22 22:23:00,45.0,40.0,29.56,WSW,254,7.0,23.0,82,0.01,,,0.09,weatherlink.com 1.10,2013-09-23 04:23:00,
2013-09-22 22:38:00,43.5,39.0,29.56,WSW,251,10.0,19.0,84,0.02,,,0.10,weatherlink.com 1.10,2013-09-23 04:38:00,
2013-09-22 22:53:00,42.6,39.0,29.55,SW,236,9.0,19.0,86,0.03,,,0.11,weatherlink.com 1.10,2013-09-23 04:53:00,
2013-09-22 23:08:00,41.8,38.0,29.55,WSW,241,8.0,21.0,86,0.04,,,0.12,weatherlink.com 1.10,2013-09-23 05:08:00,
2013-09-22 23:23:00,41.3,38.0,29.55,WNW,291,5.0,23.0,87,0.04,,,0.13,weatherlink.com 1.10,2013-09-23 05:23:00,
2013-09-22 23:38:00,40.9,37.0,29.55,West,281,6.0,19.0,87,0.03,,,0.13,weatherlink.com 1.10,2013-09-23 05:38:00,
2013-09-22 23:53:00,40.7,37.0,29.54,WSW,252,16.0,16.0,87,0.02,,,0.14,weatherlink.com 1.10,2013-09-23 05:53:00,